TimeEST,TemperatureF,Dew PointF,Humidity,Sea Level PressureIn,VisibilityMPH,Wind Direction,Wind SpeedMPH,Gust SpeedMPH,PrecipitationIn,Events,Conditions,WindDirDegrees,DateUTC
12:15 AM,26.6,19.4,74,30.18,10.0,Calm,Calm,-,N/A,,Clear,0,2013-02-26 05:15:00
12:35 AM,26.6,19.4,74,30.17,10.0,Calm,Calm,-,N/A,,Clear,0,2013-02-26 05:35:00
12:55 AM,24.8,19.4,80,30.19,10.0,Calm,Calm,-,N/A,,Clear,0,2013-02-26 05:55:00
1:15 AM,24.8,19.4,80,30.19,7.0,Calm,Calm,-,N/A,,Clear,0,2013-02-26 06:15:00
1:35 AM,24.8,19.4,80,30.19,10.0,Calm,Calm,-,N/A,,Clear,0,2013-02-26 06:35:00
1:55 AM,24.8,19.4,80,30.18,10.0,Calm,Calm,-,N/A,,Clear,0,2013-02-26 06:55:00
2:15 AM,26.6,21.2,80,30.17,10.0,Calm,Calm,-,N/A,,Clear,0,2013-02-26 07:15:00
2:35 AM,26.6,21.2,80,30.16,10.0,Calm,Calm,-,N/A,,Clear,0,2013-02-26 07:35:00
2:55 AM,26.6,21.2,80,30.16,10.0,Calm,Calm,-,N/A,,Clear,0,2013-02-26 07:55:00
3:15 AM,26.6,21.2,80,30.15,10.0,Calm,Calm,-,N/A,,Clear,0,2013-02-26 08:15:00
3:35 AM,26.6,21.2,80,30.14,10.0,Calm,Calm,-,N/A,,Clear,0,2013-02-26 08:35:00
3:55 AM,26.6,21.2,80,30.14,10.0,Calm,Calm,-,N/A,,Clear,0,2013-02-26 08:55:00
4:15 AM,26.6,21.2,80,30.14,10.0,Calm,Calm,-,N/A,,Clear,0,2013-02-26 09:15:00
4:35 AM,26.6,21.2,80,30.13,10.0,Calm,Calm,-,N/A,,Clear,0,2013-02-26 09:35:00
4:55 AM,28.4,21.2,74,30.14,10.0,Calm,Calm,-,N/A,,Clear,0,2013-02-26 09:55:00
5:15 AM,28.4,21.2,74,30.13,10.0,Calm,Calm,-,N/A,,Clear,0,2013-02-26 10:15:00
5:35 AM,28.4,23.0,80,30.13,10.0,Calm,Calm,-,N/A,,Clear,0,2013-02-26 10:35:00
5:55 AM,28.4,23.0,80,30.13,10.0,Calm,Calm,-,N/A,,Clear,0,2013-02-26 10:55:00
6:15 AM,28.4,23.0,80,30.14,10.0,Calm,Calm,-,N/A,,Clear,0,2013-02-26 11:15:00
6:35 AM,28.4,21.2,74,30.13,10.0,Calm,Calm,-,N/A,,Clear,0,2013-02-26 11:35:00
6:55 AM,30.2,24.8,80,30.12,10.0,North,3.5,-,N/A,,Mostly Cloudy,10,2013-02-26 11:55:00
7:15 AM,30.2,24.8,80,30.13,10.0,NNE,3.5,-,N/A,,Overcast,20,2013-02-26 12:15:00
7:35 AM,32.0,24.8,75,30.11,10.0,NNE,4.6,-,N/A,,Overcast,30,2013-02-26 12:35:00
7:55 AM,32.0,24.8,75,30.12,10.0,NE,4.6,-,N/A,,Overcast,40,2013-02-26 12:55:00
8:15 AM,33.8,24.8,70,30.13,10.0,North,3.5,-,N/A,,Overcast,10,2013-02-26 13:15:00
8:35 AM,33.8,24.8,70,30.13,10.0,NNE,4.6,-,N/A,,Overcast,30,2013-02-26 13:35:00
8:55 AM,33.8,26.6,75,30.13,10.0,NE,3.5,-,N/A,,Overcast,40,2013-02-26 13:55:00
9:15 AM,33.8,26.6,75,30.13,10.0,NE,6.9,-,N/A,,Overcast,40,2013-02-26 14:15:00
9:35 AM,35.6,26.6,70,30.12,10.0,NE,4.6,-,N/A,,Overcast,40,2013-02-26 14:35:00
9:55 AM,35.6,26.6,70,30.10,10.0,NE,5.8,-,N/A,,Drizzle,40,2013-02-26 14:55:00
10:15 AM,35.6,28.4,75,30.09,10.0,NE,6.9,-,N/A,,Drizzle,40,2013-02-26 15:15:00
10:35 AM,35.6,30.2,81,30.07,10.0,NNE,5.8,-,N/A,,Light Drizzle,30,2013-02-26 15:35:00
10:55 AM,35.6,30.2,81,30.07,10.0,NE,6.9,-,N/A,,Light Drizzle,40,2013-02-26 15:55:00
11:15 AM,37.4,30.2,75,30.07,10.0,NE,6.9,-,N/A,Rain,Light Rain,50,2013-02-26 16:15:00
11:35 AM,37.4,33.8,87,30.05,5.0,NE,8.1,-,N/A,Rain,Light Rain,50,2013-02-26 16:35:00
11:55 AM,37.4,33.8,87,30.03,7.0,NE,9.2,-,0.01,,Drizzle,40,2013-02-26 16:55:00
12:15 PM,37.4,35.6,93,30.02,5.0,NNE,8.1,-,0.01,Rain,Light Rain,30,2013-02-26 17:15:00
12:35 PM,37.4,35.6,93,30.00,5.0,NE,8.1,-,0.02,Rain,Light Rain,50,2013-02-26 17:35:00
12:55 PM,37.4,35.6,93,29.98,4.0,NE,8.1,-,0.05,Rain,Light Rain,40,2013-02-26 17:55:00
1:15 PM,37.4,35.6,93,29.96,3.0,ENE,11.5,17.3,0.03,Rain,Light Rain,60,2013-02-26 18:15:00
1:35 PM,37.4,35.6,93,29.93,2.0,ENE,10.4,17.3,0.05,Rain,Light Rain,60,2013-02-26 18:35:00
1:55 PM,37.4,35.6,93,29.90,2.0,NE,10.4,18.4,0.08,Rain,Light Rain,50,2013-02-26 18:55:00
2:15 PM,37.4,35.6,93,29.88,3.0,ENE,15.0,19.6,0.02,Rain,Light Rain,60,2013-02-26 19:15:00
2:35 PM,39.2,37.4,93,29.86,2.5,ENE,11.5,20.7,0.05,Rain,Light Rain,70,2013-02-26 19:35:00
2:55 PM,39.2,37.4,93,29.84,2.5,ENE,12.7,18.4,0.07,Rain,Light Rain,70,2013-02-26 19:55:00
3:15 PM,39.2,37.4,93,29.83,2.0,NE,8.1,-,0.04,Rain,Heavy Rain,40,2013-02-26 20:15:00
3:35 PM,41.0,39.2,93,29.80,5.0,ENE,8.1,-,0.09,Rain,Light Rain,70,2013-02-26 20:35:00
3:55 PM,42.8,39.2,87,29.78,7.0,East,8.1,16.1,0.12,Rain,Light Rain,80,2013-02-26 20:55:00
4:15 PM,42.8,41.0,93,29.76,7.0,ENE,9.2,-,0.02,Rain,Light Rain,70,2013-02-26 21:15:00
4:35 PM,44.6,41.0,87,29.74,7.0,East,8.1,-,0.03,,Drizzle,80,2013-02-26 21:35:00
4:55 PM,44.6,42.8,93,29.70,7.0,ENE,9.2,-,0.08,Rain,Light Rain,70,2013-02-26 21:55:00
5:15 PM,44.6,42.8,93,29.67,5.0,ENE,10.4,20.7,0.04,Rain,Rain,70,2013-02-26 22:15:00
5:35 PM,44.6,42.8,93,29.67,4.0,East,9.2,17.3,0.07,Rain,Light Rain,90,2013-02-26 22:35:00
5:55 PM,46.4,42.8,87,29.66,7.0,ENE,9.2,-,0.13,Rain,Light Rain,60,2013-02-26 22:55:00
6:15 PM,46.4,44.6,93,29.66,10.0,East,8.1,-,0.07,Rain,Heavy Rain,80,2013-02-26 23:15:00
6:35 PM,46.4,44.6,93,29.65,7.0,ENE,5.8,-,0.11,Rain,Rain,70,2013-02-26 23:35:00
6:55 PM,46.4,44.6,93,29.65,4.0,East,5.8,-,0.21,Rain,Rain,80,2013-02-26 23:55:00
7:15 PM,48.2,44.6,87,29.67,2.5,Calm,Calm,-,0.11,Rain,Rain,0,2013-02-27 00:15:00
7:35 PM,48.2,44.6,87,29.66,10.0,NNE,4.6,-,0.16,Rain,Rain,30,2013-02-27 00:35:00
7:55 PM,46.4,44.6,93,29.66,7.0,North,5.8,-,0.17,,Drizzle,10,2013-02-27 00:55:00
8:15 PM,46.4,44.6,93,29.64,7.0,North,6.9,-,0.02,Rain,Rain,360,2013-02-27 01:15:00
8:35 PM,46.4,44.6,93,29.63,7.0,North,9.2,-,0.04,,Drizzle,360,2013-02-27 01:35:00
8:55 PM,44.6,42.8,93,29.64,7.0,NNW,6.9,-,0.06,Rain,Rain,340,2013-02-27 01:55:00
9:15 PM,44.6,42.8,93,29.62,4.0,NNE,6.9,-,0.01,,Heavy Drizzle,30,2013-02-27 02:15:00
9:35 PM,44.6,42.8,93,29.62,5.0,North,6.9,-,0.01,,Overcast,10,2013-02-27 02:35:00
9:55 PM,44.6,42.8,93,29.61,7.0,North,5.8,-,0.02,,Overcast,10,2013-02-27 02:55:00
10:15 PM,44.6,42.8,93,29.60,5.0,NNE,8.1,-,N/A,,Overcast,30,2013-02-27 03:15:00
10:35 PM,44.6,42.8,93,29.59,3.0,NNE,6.9,-,N/A,,Overcast,20,2013-02-27 03:35:00
10:55 PM,44.6,42.8,93,29.60,4.0,North,6.9,-,N/A,,Overcast,360,2013-02-27 03:55:00
11:15 PM,44.6,42.8,93,29.60,3.0,NW,3.5,-,N/A,,Drizzle,320,2013-02-27 04:15:00
11:35 PM,44.6,42.8,93,29.58,4.0,North,5.8,-,N/A,,Overcast,350,2013-02-27 04:35:00
11:55 PM,42.8,42.8,100,29.56,4.0,NNW,8.1,-,N/A,,Overcast,340,2013-02-27 04:55:00